Find Starlink 31518

NORAD ID: 59219 Int'l Des: 2024-046 Owner: SPXS Country: US Constellation: starlink operational
LEOCIRCULAR

当前视图

正在加载3D地球...

About Starlink 31518

Starlink 31518 (NORAD 59219) is a starlink constellation satellite (v2 mini) launched Mar 11, 2024 by SPXS of US. It operates in LEO, CIRCULAR orbit with a mass of 730.00 kg.

关于 Starlink 31518

正在加载描述...

即将过境

Passes for default location (London). Set your location on the main map for personalized predictions.

高度历史

Loading altitude history...

两行轨道根数

1 59219U 24046U 26167.38145582 -.00000691 00000-0 -93215-5 0 9993
2 59219 53.1610 55.2318 0001072 87.7354 272.3771 15.34382109128176
Epoch: Jun 16, 2026 • Age: 10 hours

当前状态

高度 468.2 km
速度 7.64 km/s
星下点 51.64°N, 64.55°W
发射日期 Mar 11, 2024
运行时间 2.2 years
类型 internet

技术详情

分类 Payload
质量 730.00 kg
干质量 700.00 kg
总质量 730.00 kg
长度 0.30 m
直径 4.10 m
跨度 29.00 m
形状 Box + pan
制造商 SPXS
平台类型 Starlink V2M
阶段状态 In Orbit
所有者/国家 SPXS/US

Most Searched